Location: Vinland
(47.7731°N, 122.6974°W)
Time: 19:54:41
(UTC+00:00)

Vanguard 2 - Pass Details

Date: 25 April 2024
Orbit: 553 x 2914 km, 32.9° (Epoch: 22 May)

Event Time Altitude Azimuth Distance (km) Brightness Sun altitude
Exits shadow 10:24:42 27° 229° (SW) 3,955 10.5 -21.7°
Maximum altitude 10:33:13 47° 176° (S) 3,436 10.4 -20.9°
Drops below altitude 10° 10:49:30 10° 111° (ESE) 5,659 12.2 -19.1°
Sets 10:53:55 0° 106° (ESE) 6,545 12.6 -18.6°
